Probability
16 19 23 19 16 16 19 26 19 19 13 10 6 6 6 6 6 3 10 6 13 10 10 10 10 10 13 19 13 13 13 10 13 13 10 10 6 6 6 6 6 10 13
19 23 19 19 16 19 23 23 19 16 13 6 6 6 6 6 6 3 3 10 13 13 10 10 10 13 13 13 13 13 13 16 10 13 6 6 10 10 6 6 6 6 6
19 23 26 16 16 19 16 19 19 13 6 6 3 3 3 3 3 3 6 6 10 10 13 13 13 13 10 13 13 13 16 16 6 10 10 10 10 10 6 6 10 10 10
16 16 23 19 19 19 16 19 16 6 10 3 3 3 3 3 6 6 6 10 10 16 16 13 13 13 6 6 10 10 13 13 13 10 6 6 6 10 10 10 10 10 10
19 23 23 23 26 26 23 19 16 13 10 6 6 6 6 6 6 6 13 10 10 10 13 13 13 13 10 10 13 10 10 10 13 10 6 6 6 6 10 10 10 10 10
23 23 16 19 26 29 26 16 16 13 13 13 10 6 6 6 10 13 10 10 6 10 10 10 10 10 6 6 10 10 10 6 10 13 6 6 6 6 10 10 10 10 10
23 23 19 23 26 26 26 19 19 16 13 13 13 13 10 6 10 10 10 10 3 6 6 6 10 10 10 6 10 10 10 10 10 10 10 3 3 3 6 6 6 10 10
16 19 23 19 23 29 29 26 23 19 16 13 13 13 16 13 10 10 10 6 6 3 6 6 6 10 6 10 10 10 10 10 6 6 10 10 6 6 3 3 3 6 6
13 16 19 16 16 26 29 29 23 19 19 19 16 16 16 16 13 10 10 6 6 6 6 6 10 10 10 10 10 10 10 10 10 10 10 10 6 6 6 3 3 6 6
13 13 13 19 16 26 35 35 35 26 19 19 23 16 13 13 10 10 10 13 13 13 13 10 13 10 10 13 13 10 10 10 10 10 10 10 6 6 6 6 6 3 6
10 10 10 13 23 26 29 35 32 29 23 19 16 16 13 13 10 10 10 13 13 13 13 13 10 13 13 13 13 13 16 16 13 10 10 10 10 6 10 6 6 3 3
3 10 16 23 23 29 29 35 29 23 19 16 16 16 16 16 13 13 13 10 13 13 13 13 13 13 16 13 13 13 13 16 16 16 13 13 13 13 10 10 6 3 3
6 6 19 23 26 29 32 26 23 19 16 16 16 13 13 16 13 13 13 13 10 13 13 13 13 13 13 16 16 13 13 13 13 16 16 16 13 10 10 10 10 10 6
6 10 13 19 23 23 23 23 19 19 13 16 13 13 16 16 13 13 16 13 13 13 10 10 13 13 10 13 13 13 13 10 10 10 10 13 10 10 10 13 13 10 6
6 10 16 19 23 23 19 16 19 19 13 10 10 13 10 13 13 16 16 13 13 13 13 13 13 10 3 3 10 10 10 10 13 10 6 10 6 6 10 10 13 13 10
13 10 13 19 26 23 19 19 13 10 10 10 10 10 10 10 10 16 13 16 13 13 13 13 13 13 10 3 3 3 6 6 6 6 10 10 6 3 3 3 3 3 3
13 16 13 16 16 13 16 16 16 13 10 10 10 10 10 10 10 13 10 10 10 10 13 13 13 13 10 3 0 3 3 6 6 10 10 6 3 0 3 0 0 0 0
13 13 16 13 10 10 13 13 13 16 10 10 6 6 6 10 10 10 6 6 10 10 10 10 13 10 6 3 0 0 3 6 6 6 6 6 3 3 3 3 3 3 0
13 10 13 13 10 10 10 10 10 13 6 6 6 6 6 6 6 10 10 6 6 6 6 6 6 3 3 0 0 0 0 3 6 6 6 6 3 3 0 0 3 3 3
10 10 6 6 10 10 10 10 10 10 6 6 6 6 6 6 6 6 3 3 3 3 3 6 3 3 3 0 0 0 0 0 6 6 6 3 3 3 0 0 3 3 3
10 10 6 6 3 6 13 10 10 10 6 6 6 6 6 6 6 6 3 3 3 3 3 3 6 3 3 0 0 0 0 0 3 0 3 3 0 0 0 0 0 3 3
10 6 6 6 3 3 13 13 13 13 10 10 6 6 6 6 6 6 3 3 3 3 3 3 3 3 3 0 0 0 0 0 3 0 0 0 0 0 0 0 0 0 0
3 3 3 0 0 0 6 13 13 13 10 10 10 6 6 6 6 6 3 3 3 3 3 3 0 0 0 3 0 0 0 0 0 0 0 0 0 0 0 0 0 0 0
3 3 0 0 0 0 0 10 10 6 10 10 10 6 6 6 6 6 3 3 3 0 0 0 0 0 0 0 3 0 0 0 0 0 0 0 0 0 0 0 0 0 0
3 0 0 0 0 0 0 3 10 6 10 10 10 6 6 6 6 6 3 0 0 0 0 0 0 0 0 0 0 0 0 0 0 0 0 0 0 0 0 0 0 0 0
3 0 0 0 0 0 0 0 3 6 6 10 10 6 6 6 6 3 0 0 0 0 0 0 0 0 0 0 0 0 0 0 0 0 0 0 0 0 0 0 0 0 0
Height
5864 5864 5864 5864 5863 5862 5862 5861 5860 5859 5858 5857 5856 5855 5854 5853 5853 5852 5851 5852 5852 5852 5853 5854 5854 5854 5855 5855 5855 5855 5856 5856 5856 5857 5857 5857 5858 5858 5858 5858 5858 5858 5859
5861 5861 5861 5860 5860 5859 5858 5858 5858 5857 5855 5854 5853 5852 5851 5851 5850 5849 5849 5849 5849 5850 5850 5851 5851 5851 5852 5852 5852 5853 5853 5854 5854 5854 5854 5855 5856 5855 5856 5856 5856 5856 5856
5857 5857 5857 5857 5856 5856 5855 5855 5853 5852 5851 5851 5850 5849 5849 5848 5848 5847 5847 5847 5847 5847 5848 5848 5848 5848 5849 5849 5850 5850 5850 5851 5851 5851 5852 5852 5852 5853 5853 5853 5853 5853 5853
5853 5853 5853 5853 5853 5852 5851 5850 5849 5849 5848 5847 5847 5846 5845 5846 5845 5845 5844 5844 5845 5845 5845 5845 5845 5845 5845 5846 5846 5847 5847 5848 5848 5848 5848 5849 5849 5849 5850 5850 5850 5850 5850
5848 5849 5849 5849 5849 5848 5847 5847 5846 5846 5845 5844 5844 5844 5843 5843 5843 5843 5842 5842 5842 5842 5843 5843 5842 5842 5842 5843 5843 5844 5844 5844 5844 5844 5845 5845 5846 5846 5846 5847 5847 5847 5847
5844 5844 5845 5845 5844 5844 5844 5843 5843 5843 5842 5841 5841 5841 5840 5840 5840 5840 5840 5840 5840 5840 5840 5840 5840 5840 5840 5840 5840 5840 5841 5841 5841 5842 5842 5842 5842 5843 5843 5843 5843 5843 5843
5839 5839 5839 5840 5839 5839 5839 5839 5839 5839 5838 5838 5838 5837 5837 5837 5837 5837 5837 5837 5837 5838 5838 5838 5838 5837 5837 5837 5837 5837 5837 5838 5838 5839 5839 5839 5839 5839 5839 5840 5840 5839 5839
5834 5834 5835 5835 5835 5834 5834 5835 5835 5834 5834 5834 5834 5834 5834 5835 5834 5834 5834 5835 5835 5835 5835 5835 5835 5834 5834 5834 5834 5833 5834 5834 5835 5835 5835 5836 5835 5835 5836 5836 5836 5836 5836
5829 5830 5830 5830 5830 5830 5830 5830 5830 5830 5830 5830 5830 5830 5830 5831 5831 5831 5831 5831 5831 5832 5832 5832 5832 5831 5831 5831 5830 5830 5830 5830 5831 5831 5831 5832 5831 5831 5832 5832 5832 5832 5832
5825 5826 5826 5826 5826 5826 5826 5825 5825 5825 5825 5825 5826 5826 5826 5826 5826 5826 5827 5827 5828 5828 5828 5828 5828 5828 5827 5827 5827 5826 5826 5826 5826 5827 5827 5827 5827 5827 5827 5827 5827 5827 5827
5820 5821 5822 5822 5821 5821 5821 5821 5821 5821 5820 5820 5821 5821 5822 5822 5822 5822 5823 5823 5823 5823 5824 5824 5824 5824 5824 5823 5823 5822 5822 5822 5822 5822 5822 5822 5822 5822 5822 5822 5822 5822 5822
5816 5816 5817 5817 5817 5817 5817 5817 5816 5816 5816 5816 5816 5817 5817 5817 5817 5817 5818 5818 5819 5819 5819 5820 5820 5819 5819 5819 5818 5818 5817 5817 5817 5817 5817 5817 5817 5817 5817 5817 5817 5816 5816
5810 5811 5812 5812 5812 5812 5812 5812 5812 5812 5811 5811 5811 5812 5812 5812 5812 5812 5813 5813 5814 5814 5815 5815 5815 5815 5814 5814 5813 5813 5812 5812 5812 5812 5812 5812 5812 5812 5811 5811 5811 5810 5810
5805 5806 5806 5807 5807 5807 5807 5808 5808 5807 5807 5807 5806 5807 5807 5807 5807 5807 5807 5808 5808 5809 5809 5809 5809 5809 5809 5809 5808 5807 5807 5807 5807 5807 5806 5806 5806 5806 5805 5805 5804 5804 5803
5799 5800 5801 5801 5801 5802 5802 5803 5802 5802 5802 5802 5802 5802 5802 5802 5802 5802 5803 5803 5803 5803 5803 5804 5803 5803 5803 5803 5802 5801 5801 5801 5801 5801 5800 5800 5800 5799 5799 5798 5798 5797 5797
5793 5794 5794 5795 5796 5796 5797 5797 5797 5797 5797 5797 5797 5797 5797 5797 5797 5797 5797 5797 5797 5797 5797 5797 5797 5797 5797 5797 5796 5795 5795 5795 5794 5794 5794 5793 5793 5792 5792 5791 5791 5790 5790
5786 5787 5788 5789 5790 5790 5791 5791 5792 5792 5792 5792 5792 5791 5791 5791 5791 5791 5791 5791 5791 5791 5791 5791 5791 5791 5790 5790 5789 5789 5788 5788 5788 5787 5787 5787 5786 5785 5785 5784 5783 5783 5782
5780 5781 5781 5782 5783 5784 5784 5785 5785 5785 5786 5786 5785 5785 5785 5785 5785 5785 5784 5784 5784 5784 5784 5784 5784 5784 5784 5783 5783 5782 5781 5781 5780 5780 5780 5780 5779 5778 5777 5777 5776 5775 5775
5774 5774 5775 5775 5776 5777 5777 5778 5778 5778 5779 5779 5778 5779 5779 5779 5778 5778 5778 5777 5777 5777 5777 5777 5777 5777 5777 5776 5776 5775 5775 5774 5773 5773 5772 5772 5772 5771 5770 5770 5769 5768 5768
5767 5768 5768 5769 5769 5770 5770 5771 5771 5772 5772 5772 5772 5772 5772 5772 5771 5771 5771 5770 5770 5770 5769 5769 5769 5769 5769 5769 5769 5768 5768 5767 5766 5766 5765 5764 5764 5763 5763 5762 5762 5761 5760
5760 5760 5761 5762 5762 5762 5763 5764 5764 5765 5765 5765 5765 5765 5764 5764 5763 5763 5763 5763 5762 5762 5762 5762 5762 5762 5762 5761 5761 5761 5760 5760 5759 5758 5757 5757 5756 5755 5754 5754 5753 5753 5752
5752 5753 5753 5754 5755 5755 5755 5756 5756 5756 5756 5757 5757 5756 5756 5755 5755 5755 5754 5754 5754 5754 5754 5754 5754 5754 5754 5754 5753 5753 5753 5752 5751 5750 5750 5749 5748 5747 5747 5746 5745 5744 5744
5744 5745 5746 5746 5747 5747 5747 5748 5748 5748 5749 5749 5749 5749 5748 5748 5747 5746 5746 5746 5745 5746 5746 5746 5746 5746 5746 5746 5745 5745 5744 5744 5743 5743 5742 5741 5740 5740 5739 5738 5737 5736 5735
5736 5737 5737 5738 5739 5739 5739 5739 5740 5740 5741 5741 5741 5741 5740 5740 5739 5738 5738 5738 5737 5737 5737 5738 5738 5738 5738 5737 5737 5737 5736 5736 5735 5734 5734 5733 5732 5732 5731 5730 5729 5728 5727
5727 5728 5729 5730 5730 5730 5731 5731 5731 5732 5732 5732 5732 5732 5731 5731 5730 5730 5730 5729 5729 5728 5728 5729 5729 5729 5729 5729 5729 5728 5728 5727 5727 5726 5726 5725 5725 5724 5723 5722 5720 5719 5718
5719 5720 5720 5720 5721 5722 5722 5723 5723 5723 5723 5723 5723 5723 5723 5722 5722 5721 5721 5720 5720 5720 5720 5720 5720 5720 5721 5721 5720 5720 5719 5719 5718 5718 5717 5717 5716 5715 5714 5713 5712 5711 5710
Wind_Speed
11 10 10 11 12 13 13 13 12 13 14 13 12 11 10 10 10 10 10 9 9 9 9 10 10 10 10 10 10 10 10 10 10 9 9 9 9 9 9 9 9 9 9
13 12 11 12 13 14 14 13 14 14 14 14 13 12 10 10 10 10 9 8 9 9 9 10 10 11 11 11 10 11 11 11 10 10 11 10 10 9 10 10 10 10 10
14 13 13 13 14 14 14 14 15 15 14 14 12 12 11 10 9 9 8 8 8 9 11 11 12 12 12 11 10 10 11 11 10 10 10 10 10 10 11 11 11 11 11
16 15 14 14 15 15 14 15 15 15 15 14 13 11 10 9 9 9 8 8 8 9 10 10 10 10 10 10 10 11 11 11 11 11 10 10 11 11 11 11 12 12 12
17 16 15 15 15 15 15 15 15 15 14 13 13 12 11 10 9 9 9 9 9 9 9 10 10 9 10 10 11 12 12 12 11 11 11 12 12 12 12 12 12 12 13
17 17 17 17 16 16 16 16 15 15 14 13 13 12 11 10 10 10 10 9 9 10 9 9 9 10 11 12 12 13 13 13 12 12 12 12 13 13 12 12 13 13 14
18 18 18 19 17 16 16 16 16 15 14 13 13 12 11 11 11 11 11 11 10 9 10 9 10 10 11 12 13 14 14 14 13 13 13 13 13 13 13 13 13 13 13
19 18 18 19 17 17 16 16 16 16 16 14 14 13 12 12 12 11 11 11 11 11 11 10 10 11 12 12 14 14 14 15 15 15 14 15 15 15 14 14 14 14 15
19 18 17 16 16 16 16 16 16 16 16 15 14 14 14 14 13 13 13 13 13 13 13 12 11 11 12 12 13 15 15 16 16 16 16 16 16 15 14 15 15 15 16
18 17 16 15 15 15 16 16 17 17 16 16 16 16 16 16 15 15 14 14 14 14 14 14 13 13 13 14 14 14 15 15 16 17 17 18 18 17 16 16 17 17 17
19 18 17 16 16 16 16 17 17 17 16 16 16 17 17 17 17 16 16 16 16 16 15 15 15 15 15 15 15 15 15 16 17 17 18 19 19 19 18 18 19 19 19
18 19 18 18 17 17 17 17 16 16 16 17 17 17 18 18 18 17 17 18 17 17 17 17 16 16 16 16 16 17 17 17 17 18 19 19 20 20 20 20 20 21 21
18 19 20 20 19 19 17 17 16 16 17 17 17 18 19 19 18 19 19 19 19 19 19 18 18 18 17 17 17 18 18 19 19 19 20 20 21 21 22 22 22 22 22
20 20 21 21 21 20 19 17 17 17 17 17 17 18 18 19 19 18 18 18 19 19 19 19 19 18 18 18 18 19 20 21 21 21 21 22 22 22 22 23 23 23 23
21 21 21 21 21 21 20 19 19 18 18 18 18 18 18 19 19 18 18 18 19 19 19 20 20 20 19 19 20 21 21 21 22 22 22 22 22 23 23 24 24 24 24
22 22 21 21 21 21 20 20 20 20 19 19 18 18 19 19 19 19 18 19 20 20 21 21 21 21 21 21 21 22 23 23 23 23 24 24 24 24 24 24 25 25 25
22 22 21 22 22 22 21 21 21 21 21 21 20 20 19 20 20 20 20 21 21 21 22 22 22 22 22 22 22 22 23 23 23 23 23 24 24 23 23 24 25 26 25
22 22 23 23 23 23 23 22 22 22 22 22 21 21 21 21 21 21 21 21 22 22 22 22 22 22 22 22 21 21 21 21 22 22 22 23 23 23 23 24 24 25 25
22 23 23 24 24 24 24 23 24 23 23 24 22 22 22 23 23 22 23 22 22 22 23 23 22 22 23 23 23 23 22 23 23 23 23 23 24 24 24 24 24 25 25
24 24 25 25 25 25 25 25 25 24 24 24 24 24 25 25 24 24 24 23 23 23 23 23 23 23 23 23 23 23 23 24 24 24 24 25 25 25 25 25 25 26 26
26 26 26 26 26 26 25 25 25 25 25 25 25 26 24 24 25 25 25 25 24 24 24 24 24 24 24 24 24 24 24 24 24 24 25 26 26 26 25 26 25 26 25
27 26 26 26 26 27 26 25 25 25 24 24 25 25 24 25 26 26 25 26 25 25 25 25 25 25 25 25 25 26 26 26 25 25 25 26 26 26 25 26 26 26 26
27 26 26 26 26 27 26 26 26 25 24 25 25 26 26 26 26 27 26 25 24 25 25 26 26 26 26 26 26 26 26 26 25 25 25 26 26 26 26 26 26 26 26
27 27 27 27 27 28 27 27 26 27 27 26 26 27 27 27 27 27 27 25 25 26 26 26 26 27 26 25 25 25 25 25 25 26 25 26 26 26 26 27 27 27 27
28 28 29 29 29 28 29 28 27 28 28 28 27 27 28 27 27 27 27 27 26 26 27 27 27 27 27 27 26 26 26 26 26 26 26 26 26 26 27 27 28 28 28
28 28 29 29 30 30 29 30 29 28 28 28 28 27 27 28 28 28 28 27 27 27 27 27 26 26 26 27 27 26 26 26 26 26 26 27 27 26 26 27 28 28 28
Wind_Direction
264 269 278 281 284 289 294 296 301 306 306 305 299 296 293 292 290 286 283 276 269 259 258 256 257 258 258 258 260 263 262 259 260 260 262 264 263 264 268 272 272 273 277
263 270 279 283 284 291 292 294 300 301 302 303 295 292 291 290 288 282 280 279 271 259 256 253 254 260 257 260 261 258 258 258 261 261 259 261 265 263 267 270 269 270 274
263 267 275 283 289 295 297 298 300 300 299 300 295 292 287 285 284 279 274 273 271 265 258 259 258 257 254 255 255 255 257 259 263 265 265 262 261 263 265 267 269 269 273
264 268 272 280 289 293 294 297 298 297 298 296 295 293 288 283 280 277 273 268 266 265 263 264 262 255 251 254 256 256 256 259 263 266 265 263 261 262 265 266 267 270 273
263 268 272 277 283 287 290 295 294 291 291 292 290 285 284 283 281 278 278 275 270 266 265 266 266 262 257 258 259 258 259 262 266 264 263 262 261 263 265 268 269 269 272
263 267 270 273 276 278 283 287 287 285 285 284 283 282 277 276 276 275 277 279 274 272 267 267 268 264 261 263 261 261 260 263 267 265 264 265 266 265 265 268 270 271 273
265 268 269 273 274 275 278 280 280 278 280 280 278 275 270 271 271 273 277 276 273 272 266 269 274 272 271 268 266 267 267 265 264 263 264 267 267 269 266 268 269 272 273
266 268 270 274 273 272 271 274 276 274 274 276 275 269 264 267 269 271 272 273 270 270 271 272 277 278 275 271 269 268 267 268 266 266 267 270 269 269 267 269 270 270 272
265 267 271 273 270 267 268 272 273 275 270 268 270 268 266 267 267 268 269 271 270 269 271 275 275 275 275 274 272 272 269 267 266 268 268 269 268 269 271 270 271 271 270
263 263 267 269 267 265 266 269 271 273 271 265 263 266 270 270 268 267 267 270 272 271 271 271 274 275 276 276 278 278 272 268 267 268 269 270 269 268 270 271 272 272 270
260 262 265 266 267 269 270 270 271 272 270 269 265 266 270 270 269 267 265 266 269 272 272 271 273 275 275 277 278 279 277 272 270 269 269 270 269 269 269 271 273 273 273
258 257 259 263 265 269 274 275 273 273 271 271 266 266 269 270 269 268 267 266 266 269 271 270 271 273 275 277 277 277 276 275 273 272 273 272 269 268 269 271 274 274 274
258 258 260 264 265 269 273 273 273 273 273 272 267 268 270 268 268 268 267 267 265 266 268 269 271 272 274 275 276 275 274 274 274 273 273 273 271 270 271 272 273 274 275
258 260 262 263 265 269 271 270 269 269 272 277 276 276 273 271 271 269 268 267 266 267 267 268 269 271 272 273 276 277 275 272 272 272 273 273 273 273 273 274 274 274 275
259 260 261 262 263 264 267 267 266 266 270 275 276 278 275 275 272 268 268 269 268 267 267 270 272 273 273 274 276 276 275 275 273 273 273 273 273 274 274 275 274 274 276
261 262 262 261 262 263 265 265 266 269 271 273 272 273 274 275 272 269 269 271 271 270 270 270 273 272 273 275 276 275 276 276 275 275 275 275 275 274 274 275 276 275 277
260 260 260 260 261 262 263 263 265 267 269 269 271 273 273 272 273 271 272 273 273 272 272 271 270 271 272 273 275 276 277 276 275 275 275 275 276 276 275 275 276 278 279
260 260 260 258 260 263 265 265 265 264 265 268 269 271 273 272 273 273 272 272 273 273 273 273 271 270 271 272 273 274 276 276 275 276 275 275 275 276 276 276 276 278 280
261 261 261 260 261 262 265 267 269 268 266 267 268 270 272 272 272 274 273 272 272 273 273 273 272 271 271 272 273 274 275 276 275 275 274 273 274 275 276 278 280 280 280
261 262 263 263 264 264 265 267 269 270 271 270 270 271 273 273 272 272 272 271 271 272 273 272 272 272 272 271 271 273 275 276 277 277 275 275 276 277 277 278 280 281 281
263 263 263 263 265 266 268 268 269 269 269 270 270 270 273 275 273 271 273 271 270 271 271 271 272 272 272 271 271 272 274 275 276 276 276 276 276 277 277 278 279 279 280
264 264 264 265 266 268 269 271 272 272 272 272 271 271 275 278 277 274 273 273 269 269 270 270 270 270 270 270 270 271 272 274 276 277 277 278 277 277 278 278 278 278 278
264 263 264 266 268 269 270 271 271 271 272 273 274 275 276 279 279 276 275 272 271 270 270 271 270 269 269 269 270 272 274 274 275 276 277 278 278 278 278 279 279 278 278
264 262 263 266 268 270 270 270 268 269 271 271 274 276 277 279 279 277 275 276 276 273 270 271 270 270 271 271 271 273 274 277 276 277 277 278 278 279 280 279 279 279 279
263 265 265 266 268 269 270 271 269 269 269 270 272 276 278 279 279 278 277 276 277 277 274 272 273 273 271 271 272 272 273 276 277 277 277 278 279 280 281 280 280 280 281
263 265 267 266 267 270 270 270 272 273 273 272 273 275 277 277 278 276 276 276 275 275 275 273 273 274 273 273 273 273 274 274 275 276 277 278 278 279 279 280 281 282 283